date,time,SUV Intensity [MED/Hr],UV Index,Daily total [MED],Since Last [MED]
25/07/2022,00:10:50,0.000,0.0,0.0,0.0
25/07/2022,00:11:50,0.000,0.0,0.0,0.0
25/07/2022,00:12:49,0.000,0.0,0.0,0.0
25/07/2022,00:13:50,0.000,0.0,0.0,0.0
25/07/2022,00:14:50,-0.000,0.0,0.0,0.0
25/07/2022,00:15:50,-0.000,0.0,0.0,0.0
25/07/2022,00:16:50,0.000,0.0,0.0,0.0
25/07/2022,00:17:50,0.000,0.0,0.0,0.0
25/07/2022,00:18:50,-0.000,0.0,0.0,0.0
25/07/2022,00:19:50,0.000,0.0,0.0,0.0
25/07/2022,00:20:50,-0.000,0.0,0.0,0.0
25/07/2022,00:21:58,-0.001,0.0,0.0,0.0
25/07/2022,00:22:50,0.000,0.0,0.0,0.0
25/07/2022,00:23:52,-0.000,0.0,0.0,0.0
25/07/2022,00:24:50,0.000,0.0,0.0,0.0
25/07/2022,00:25:49,-0.001,0.0,0.0,0.0
25/07/2022,00:26:58,0.000,0.0,0.0,0.0
25/07/2022,00:27:50,0.000,0.0,0.0,0.0
25/07/2022,00:28:50,0.000,0.0,0.0,0.0
25/07/2022,00:29:50,0.000,0.0,0.0,0.0
25/07/2022,00:30:50,0.000,0.0,0.0,0.0
25/07/2022,00:31:50,0.001,0.0,0.0,0.0
25/07/2022,00:32:58,-0.000,0.0,0.0,0.0
25/07/2022,00:33:50,-0.000,0.0,0.0,0.0
25/07/2022,00:34:50,0.001,0.0,0.0,0.0
25/07/2022,00:35:59,0.001,0.0,0.0,0.0
25/07/2022,00:36:50,-0.001,0.0,0.0,0.0
25/07/2022,00:37:50,0.001,0.0,0.0,0.0
25/07/2022,00:38:50,0.000,0.0,0.0,0.0
25/07/2022,00:39:50,0.000,0.0,0.0,0.0
25/07/2022,00:40:50,0.000,0.0,0.0,0.0
25/07/2022,00:41:50,0.000,0.0,0.0,0.0
25/07/2022,00:42:50,0.001,0.0,0.0,0.0
25/07/2022,00:43:50,0.000,0.0,0.0,0.0
25/07/2022,00:44:50,0.000,0.0,0.0,0.0
25/07/2022,00:45:50,-0.000,0.0,0.0,0.0
25/07/2022,00:46:50,0.000,0.0,0.0,0.0
25/07/2022,00:47:50,0.001,0.0,0.0,0.0
25/07/2022,00:48:50,0.000,0.0,0.0,0.0
25/07/2022,00:49:50,0.000,0.0,0.0,0.0
25/07/2022,00:51:14,0.000,0.0,0.0,0.0
25/07/2022,00:52:50,0.001,0.0,0.0,0.0
25/07/2022,00:53:58,0.001,0.0,0.0,0.0
25/07/2022,00:54:50,0.000,0.0,0.0,0.0
25/07/2022,00:55:50,0.000,0.0,0.0,0.0
25/07/2022,00:56:59,0.000,0.0,0.0,0.0
25/07/2022,00:57:50,0.000,0.0,0.0,0.0
25/07/2022,00:58:50,0.001,0.0,0.0,0.0
25/07/2022,00:59:50,0.000,0.0,0.0,0.0
25/07/2022,01:00:50,0.000,0.0,0.0,0.0
25/07/2022,01:01:50,-0.000,0.0,0.0,0.0
25/07/2022,01:02:50,0.000,0.0,0.0,0.0
25/07/2022,01:03:50,0.001,0.0,0.0,0.0
25/07/2022,01:04:50,0.000,0.0,0.0,0.0
25/07/2022,01:05:51,0.000,0.0,0.0,0.0
25/07/2022,01:06:50,0.000,0.0,0.0,0.0
25/07/2022,01:07:59,0.000,0.0,0.0,0.0
25/07/2022,01:08:50,0.001,0.0,0.0,0.0
25/07/2022,01:09:50,-0.001,0.0,0.0,0.0
25/07/2022,01:10:50,0.000,0.0,0.0,0.0
25/07/2022,01:11:50,0.000,0.0,0.0,0.0
25/07/2022,01:12:50,-0.000,0.0,0.0,0.0
25/07/2022,01:13:50,-0.001,0.0,0.0,0.0
25/07/2022,01:14:50,0.000,0.0,0.0,0.0
25/07/2022,01:15:50,0.000,0.0,0.0,0.0
25/07/2022,01:16:50,0.000,0.0,0.0,0.0
25/07/2022,01:17:50,0.000,0.0,0.0,0.0
25/07/2022,01:18:50,0.001,0.0,0.0,0.0
25/07/2022,01:19:50,0.001,0.0,0.0,0.0
25/07/2022,01:20:50,0.001,0.0,0.0,0.0
25/07/2022,01:21:50,-0.001,0.0,0.0,0.0
25/07/2022,01:22:58,-0.000,0.0,0.0,0.0
25/07/2022,01:23:49,0.000,0.0,0.0,0.0
25/07/2022,01:24:51,0.000,0.0,0.0,0.0
25/07/2022,01:25:58,0.001,0.0,0.0,0.0
25/07/2022,01:26:50,0.000,0.0,0.0,0.0
25/07/2022,01:27:50,0.001,0.0,0.0,0.0
25/07/2022,01:28:50,0.000,0.0,0.0,0.0
25/07/2022,01:29:58,0.001,0.0,0.0,0.0
25/07/2022,01:30:52,0.000,0.0,0.0,0.0
25/07/2022,01:31:50,0.000,0.0,0.0,0.0
25/07/2022,01:32:50,0.000,0.0,0.0,0.0
25/07/2022,01:33:50,0.000,0.0,0.0,0.0
25/07/2022,01:34:50,0.001,0.0,0.0,0.0
25/07/2022,01:35:50,0.000,0.0,0.0,0.0
25/07/2022,01:36:50,0.000,0.0,0.0,0.0
25/07/2022,01:37:50,0.001,0.0,0.0,0.0
25/07/2022,01:38:50,0.000,0.0,0.0,0.0
25/07/2022,01:39:50,0.000,0.0,0.0,0.0
25/07/2022,01:40:50,0.001,0.0,0.0,0.0
25/07/2022,01:41:50,-0.000,0.0,0.0,0.0
25/07/2022,01:42:50,0.000,0.0,0.0,0.0
25/07/2022,01:43:50,0.000,0.0,0.0,0.0
25/07/2022,01:44:50,0.000,0.0,0.0,0.0
25/07/2022,01:45:50,0.001,0.0,0.0,0.0
25/07/2022,01:46:51,0.000,0.0,0.0,0.0
25/07/2022,01:47:50,0.000,0.0,0.0,0.0
25/07/2022,01:48:50,0.000,0.0,0.0,0.0
25/07/2022,01:49:50,0.000,0.0,0.0,0.0
25/07/2022,01:50:50,0.001,0.0,0.0,0.0
25/07/2022,01:51:50,0.001,0.0,0.0,0.0
25/07/2022,01:52:50,-0.000,0.0,0.0,0.0
25/07/2022,01:53:50,0.001,0.0,0.0,0.0
25/07/2022,01:54:50,0.000,0.0,0.0,0.0
25/07/2022,01:55:50,-0.000,0.0,0.0,0.0
25/07/2022,01:56:51,0.001,0.0,0.0,0.0
25/07/2022,01:57:50,-0.000,0.0,0.0,0.0
25/07/2022,01:58:50,0.001,0.0,0.0,0.0
25/07/2022,01:59:50,0.001,0.0,0.0,0.0
25/07/2022,02:00:50,0.001,0.0,0.0,0.0
25/07/2022,02:01:52,0.001,0.0,0.0,0.0
25/07/2022,02:02:50,0.001,0.0,0.0,0.0
25/07/2022,02:03:59,0.001,0.0,0.0,0.0
25/07/2022,02:04:50,0.000,0.0,0.0,0.0
25/07/2022,02:05:50,0.001,0.0,0.0,0.0
25/07/2022,02:06:58,0.001,0.0,0.0,0.0
25/07/2022,02:07:50,0.001,0.0,0.0,0.0
25/07/2022,02:08:50,0.001,0.0,0.0,0.0
25/07/2022,02:09:50,0.001,0.0,0.0,0.0
25/07/2022,02:10:50,-0.000,0.0,0.0,0.0
25/07/2022,02:11:50,-0.000,0.0,0.0,0.0
25/07/2022,02:12:50,-0.000,0.0,0.0,0.0
25/07/2022,02:13:50,0.001,0.0,0.0,0.0
25/07/2022,02:15:04,0.001,0.0,0.0,0.0
25/07/2022,02:16:51,0.001,0.0,0.0,0.0
25/07/2022,02:17:50,0.001,0.0,0.0,0.0
25/07/2022,02:18:50,0.001,0.0,0.0,0.0
25/07/2022,02:19:50,0.001,0.0,0.0,0.0
25/07/2022,02:20:50,0.001,0.0,0.0,0.0
25/07/2022,02:21:58,0.001,0.0,0.0,0.0
25/07/2022,02:22:50,0.001,0.0,0.0,0.0
25/07/2022,02:23:51,-0.000,0.0,0.0,0.0
25/07/2022,02:24:58,0.001,0.0,0.0,0.0
25/07/2022,02:25:50,0.001,0.0,0.0,0.0
25/07/2022,02:26:50,0.001,0.0,0.0,0.0
25/07/2022,02:27:50,0.001,0.0,0.0,0.0
25/07/2022,02:28:50,0.001,0.0,0.0,0.0
25/07/2022,02:29:51,0.001,0.0,0.0,0.0
25/07/2022,02:30:58,0.001,0.0,0.0,0.0
25/07/2022,02:31:51,0.001,0.0,0.0,0.0
25/07/2022,02:32:51,0.001,0.0,0.0,0.0
25/07/2022,02:33:50,0.001,0.0,0.0,0.0
25/07/2022,02:34:50,0.001,0.0,0.0,0.0
25/07/2022,02:35:50,0.001,0.0,0.0,0.0
25/07/2022,02:36:50,0.001,0.0,0.0,0.0
25/07/2022,02:37:50,0.001,0.0,0.0,0.0
25/07/2022,02:38:50,0.001,0.0,0.0,0.0
25/07/2022,02:39:50,0.001,0.0,0.0,0.0
25/07/2022,02:40:51,0.001,0.0,0.0,0.0
25/07/2022,02:41:50,0.001,0.0,0.0,0.0
25/07/2022,02:42:50,0.001,0.0,0.0,0.0
25/07/2022,02:43:50,0.001,0.0,0.0,0.0
25/07/2022,02:44:50,0.001,0.0,0.0,0.0
25/07/2022,02:45:50,0.001,0.0,0.0,0.0
25/07/2022,02:46:51,0.001,0.0,0.0,0.0
25/07/2022,02:47:50,0.001,0.0,0.0,0.0
25/07/2022,02:48:50,0.001,0.0,0.0,0.0
25/07/2022,02:49:51,0.001,0.0,0.0,0.0
25/07/2022,02:50:50,0.001,0.0,0.0,0.0
25/07/2022,02:51:50,0.001,0.0,0.0,0.0
25/07/2022,02:52:50,0.001,0.0,0.0,0.0
25/07/2022,02:53:58,0.001,0.0,0.0,0.0
25/07/2022,02:54:50,0.001,0.0,0.0,0.0
25/07/2022,02:55:51,0.001,0.0,0.0,0.0
25/07/2022,02:56:58,0.001,0.0,0.0,0.0
25/07/2022,02:57:50,0.001,0.0,0.0,0.0
25/07/2022,02:58:50,0.001,0.0,0.0,0.0
25/07/2022,02:59:58,0.001,0.0,0.0,0.0
25/07/2022,03:00:50,0.001,0.0,0.0,0.0
25/07/2022,03:01:50,0.001,0.0,0.0,0.0
25/07/2022,03:02:58,0.001,0.0,0.0,0.0
25/07/2022,03:03:50,0.000,0.0,0.0,0.0
25/07/2022,03:04:51,0.001,0.0,0.0,0.0
25/07/2022,03:05:50,0.001,0.0,0.0,0.0
25/07/2022,03:06:50,-0.000,0.0,0.0,0.0
25/07/2022,03:07:50,0.001,0.0,0.0,0.0
25/07/2022,03:08:50,0.001,0.0,0.0,0.0
25/07/2022,03:09:50,0.000,0.0,0.0,0.0
25/07/2022,03:10:50,0.000,0.0,0.0,0.0
25/07/2022,03:11:50,0.000,0.0,0.0,0.0
25/07/2022,03:12:53,0.001,0.0,0.0,0.0
25/07/2022,03:13:50,-0.000,0.0,0.0,0.0
25/07/2022,03:14:51,0.001,0.0,0.0,0.0
25/07/2022,03:15:50,0.000,0.0,0.0,0.0
25/07/2022,03:16:50,0.001,0.0,0.0,0.0
25/07/2022,03:17:58,0.001,0.0,0.0,0.0
25/07/2022,03:18:50,0.000,0.0,0.0,0.0
25/07/2022,03:19:50,0.000,0.0,0.0,0.0
25/07/2022,03:20:58,0.000,0.0,0.0,0.0
25/07/2022,03:21:51,0.000,0.0,0.0,0.0
25/07/2022,03:22:51,0.000,0.0,0.0,0.0
25/07/2022,03:23:50,0.000,0.0,0.0,0.0
25/07/2022,03:24:51,0.000,0.0,0.0,0.0
25/07/2022,03:25:50,-0.000,0.0,0.0,0.0
25/07/2022,03:26:58,0.001,0.0,0.0,0.0
25/07/2022,03:27:50,0.000,0.0,0.0,0.0
25/07/2022,03:28:50,0.000,0.0,0.0,0.0
25/07/2022,03:29:51,0.000,0.0,0.0,0.0
25/07/2022,03:30:50,0.000,0.0,0.0,0.0
25/07/2022,03:31:50,-0.000,0.0,0.0,0.0
25/07/2022,03:32:50,0.000,0.0,0.0,0.0
25/07/2022,03:33:51,0.000,0.0,0.0,0.0
25/07/2022,03:34:50,0.001,0.0,0.0,0.0
25/07/2022,03:35:51,0.000,0.0,0.0,0.0
25/07/2022,03:36:50,0.001,0.0,0.0,0.0
25/07/2022,03:37:50,0.000,0.0,0.0,0.0
25/07/2022,03:38:50,0.001,0.0,0.0,0.0
25/07/2022,03:39:51,0.000,0.0,0.0,0.0
25/07/2022,03:40:51,0.000,0.0,0.0,0.0
25/07/2022,03:41:50,0.000,0.0,0.0,0.0
25/07/2022,03:42:50,-0.000,0.0,0.0,0.0
25/07/2022,03:43:51,0.000,0.0,0.0,0.0
25/07/2022,03:44:50,0.000,0.0,0.0,0.0
25/07/2022,03:45:50,0.001,0.0,0.0,0.0
25/07/2022,03:46:50,0.001,0.0,0.0,0.0
25/07/2022,03:47:59,0.001,0.0,0.0,0.0
25/07/2022,03:48:50,0.001,0.0,0.0,0.0
25/07/2022,03:49:51,-0.000,0.0,0.0,0.0
25/07/2022,03:50:50,0.001,0.0,0.0,0.0
25/07/2022,03:51:50,0.001,0.0,0.0,0.0
25/07/2022,03:52:50,0.001,0.0,0.0,0.0
25/07/2022,03:53:50,0.001,0.0,0.0,0.0
25/07/2022,03:54:51,0.001,0.0,0.0,0.0
25/07/2022,03:55:58,0.001,0.0,0.0,0.0
25/07/2022,03:56:50,0.001,0.0,0.0,0.0
25/07/2022,03:57:50,0.001,0.0,0.0,0.0
25/07/2022,03:58:59,0.001,0.0,0.0,0.0
25/07/2022,03:59:50,0.001,0.0,0.0,0.0
25/07/2022,04:00:51,0.001,0.0,0.0,0.0
25/07/2022,04:01:50,0.001,0.0,0.0,0.0
25/07/2022,04:02:50,0.001,0.0,0.0,0.0
25/07/2022,04:03:51,0.001,0.0,0.0,0.0
25/07/2022,04:04:50,0.001,0.0,0.0,0.0
25/07/2022,04:05:50,0.001,0.0,0.0,0.0
25/07/2022,04:06:51,0.001,0.0,0.0,0.0
25/07/2022,04:07:50,0.002,0.0,0.0,0.0
25/07/2022,04:08:51,0.001,0.0,0.0,0.0
25/07/2022,04:09:50,0.001,0.0,0.0,0.0
25/07/2022,04:10:51,0.001,0.0,0.0,0.0
25/07/2022,04:11:51,0.002,0.0,0.0,0.0
25/07/2022,04:12:50,0.001,0.0,0.0,0.0
25/07/2022,04:13:50,0.002,0.0,0.0,0.0
25/07/2022,04:14:52,0.002,0.0,0.0,0.0
25/07/2022,04:15:52,0.002,0.0,0.0,0.0
25/07/2022,04:16:59,0.002,0.0,0.0,0.0
25/07/2022,04:17:51,0.003,0.0,0.0,0.0
25/07/2022,04:18:51,0.002,0.0,0.0,0.0
25/07/2022,04:19:50,0.002,0.0,0.0,0.0
25/07/2022,04:20:50,0.002,0.0,0.0,0.0
25/07/2022,04:21:50,0.003,0.0,0.0,0.0
25/07/2022,04:22:50,0.002,0.0,0.0,0.0
25/07/2022,04:23:51,0.003,0.0,0.0,0.0
25/07/2022,04:24:51,0.003,0.0,0.0,0.0
25/07/2022,04:25:50,0.002,0.0,0.0,0.0
25/07/2022,04:26:50,0.003,0.0,0.0,0.0
25/07/2022,04:27:50,0.003,0.0,0.0,0.0
25/07/2022,04:28:50,0.004,0.0,0.0,0.0
25/07/2022,04:29:50,0.003,0.0,0.0,0.0
25/07/2022,04:30:50,0.002,0.0,0.0,0.0
25/07/2022,04:31:50,0.003,0.0,0.0,0.0
25/07/2022,04:32:42,0.004,0.0,0.0,0.0
25/07/2022,04:33:51,0.004,0.0,0.0,0.0
25/07/2022,04:34:50,0.004,0.0,0.0,0.0
25/07/2022,04:35:51,0.005,0.0,0.0,0.0
25/07/2022,04:36:51,0.004,0.0,0.0,0.0
25/07/2022,04:37:59,0.005,0.0,0.0,0.0
25/07/2022,04:38:50,0.006,0.0,0.0,0.0
25/07/2022,04:39:51,0.006,0.0,0.0,0.0
25/07/2022,04:40:59,0.006,0.0,0.0,0.0
25/07/2022,04:41:50,0.008,0.0,0.0,0.0
25/07/2022,04:42:50,0.007,0.0,0.0,0.0
25/07/2022,04:43:51,0.007,0.0,0.0,0.0
25/07/2022,04:44:50,0.007,0.0,0.0,0.0
25/07/2022,04:45:50,0.006,0.0,0.001,0.001
25/07/2022,04:46:51,0.007,0.0,0.001,0.0
25/07/2022,04:47:50,0.006,0.0,0.001,0.0
25/07/2022,04:48:50,0.006,0.0,0.001,0.0
25/07/2022,04:49:51,0.006,0.0,0.001,0.0
25/07/2022,04:50:50,0.005,0.0,0.001,0.0
25/07/2022,04:51:50,0.006,0.0,0.001,0.0
25/07/2022,04:52:50,0.006,0.0,0.001,0.0
25/07/2022,04:53:50,0.008,0.0,0.001,0.0
25/07/2022,04:54:51,0.007,0.0,0.001,0.0
25/07/2022,04:55:51,0.006,0.0,0.001,0.0
25/07/2022,04:56:51,0.006,0.0,0.001,0.0
25/07/2022,04:57:52,0.005,0.0,0.001,0.0
25/07/2022,04:58:50,0.005,0.0,0.001,0.0
25/07/2022,04:59:50,0.005,0.0,0.001,0.0
25/07/2022,05:00:51,0.005,0.0,0.001,0.0
25/07/2022,05:01:50,0.005,0.0,0.001,0.0
25/07/2022,05:02:50,0.005,0.0,0.001,0.0
25/07/2022,05:03:52,0.006,0.0,0.001,0.0
25/07/2022,05:04:59,0.007,0.0,0.001,0.0
25/07/2022,05:05:50,0.006,0.0,0.001,0.0
25/07/2022,05:06:57,0.006,0.0,0.001,0.0
25/07/2022,05:07:51,0.005,0.0,0.001,0.0
25/07/2022,05:08:51,0.006,0.0,0.001,0.0
25/07/2022,05:09:51,0.006,0.0,0.001,0.0
25/07/2022,05:11:07,0.005,0.0,0.002,0.001
25/07/2022,05:12:51,0.005,0.0,0.002,0.0
25/07/2022,05:13:51,0.006,0.0,0.002,0.0
25/07/2022,05:14:50,0.005,0.0,0.002,0.0
25/07/2022,05:15:51,0.005,0.0,0.002,0.0
25/07/2022,05:16:50,0.004,0.0,0.002,0.0
25/07/2022,05:17:50,0.004,0.0,0.002,0.0
25/07/2022,05:18:51,0.004,0.0,0.002,0.0
25/07/2022,05:19:50,0.005,0.0,0.002,0.0
25/07/2022,05:20:50,0.008,0.0,0.002,0.0
25/07/2022,05:21:51,0.012,0.0,0.002,0.0
25/07/2022,05:22:50,0.013,0.0,0.002,0.0
25/07/2022,05:23:51,0.015,0.0,0.002,0.0
25/07/2022,05:24:51,0.016,0.0,0.003,0.001
25/07/2022,05:25:50,0.017,0.0,0.003,0.0
25/07/2022,05:26:51,0.018,0.0,0.003,0.0
25/07/2022,05:27:50,0.017,0.0,0.004,0.001
25/07/2022,05:28:51,0.017,0.0,0.004,0.0
25/07/2022,05:29:50,0.019,0.0,0.004,0.0
25/07/2022,05:30:50,0.022,0.0,0.005,0.001
25/07/2022,05:31:59,0.025,0.0,0.005,0.0
25/07/2022,05:32:50,0.026,0.0,0.005,0.0
25/07/2022,05:33:50,0.027,0.0,0.006,0.001
25/07/2022,05:34:51,0.028,0.0,0.006,0.0
25/07/2022,05:35:51,0.029,0.0,0.007,0.001
25/07/2022,05:36:51,0.031,0.0,0.007,0.0
25/07/2022,05:37:50,0.033,0.0,0.008,0.001
25/07/2022,05:38:50,0.036,0.0,0.008,0.0
25/07/2022,05:39:51,0.037,0.0,0.009,0.001
25/07/2022,05:40:50,0.039,0.0,0.01,0.001
25/07/2022,05:41:50,0.040,0.0,0.01,0.0
25/07/2022,05:42:51,0.040,0.0,0.011,0.001
25/07/2022,05:43:50,0.043,0.0,0.012,0.001
25/07/2022,05:44:50,0.044,0.0,0.012,0.0
25/07/2022,05:45:51,0.045,0.0,0.013,0.001
25/07/2022,05:46:50,0.046,0.0,0.014,0.001
25/07/2022,05:47:50,0.047,0.0,0.015,0.001
25/07/2022,05:48:51,0.048,0.0,0.015,0.0
25/07/2022,05:49:59,0.050,0.0,0.016,0.001
25/07/2022,05:50:51,0.051,0.0,0.017,0.001
25/07/2022,05:51:51,0.053,0.0,0.018,0.001
25/07/2022,05:52:59,0.055,0.0,0.019,0.001
25/07/2022,05:53:51,0.056,0.0,0.02,0.001
25/07/2022,05:54:51,0.059,0.0,0.021,0.001
25/07/2022,05:55:59,0.062,0.0,0.022,0.001
25/07/2022,05:56:50,0.063,0.0,0.023,0.001
25/07/2022,05:57:51,0.065,0.0,0.024,0.001
25/07/2022,05:58:58,0.067,0.0,0.025,0.001
25/07/2022,05:59:50,0.069,0.0,0.026,0.001
25/07/2022,06:00:51,0.071,0.0,0.027,0.001
25/07/2022,06:01:50,0.074,0.0,0.028,0.001
25/07/2022,06:02:50,0.075,0.0,0.03,0.002
25/07/2022,06:03:51,0.075,0.0,0.031,0.001
25/07/2022,06:04:50,0.074,0.0,0.032,0.001
25/07/2022,06:05:50,0.078,0.0,0.033,0.001
25/07/2022,06:06:51,0.081,0.0,0.035,0.002
25/07/2022,06:07:50,0.080,0.0,0.036,0.001
25/07/2022,06:08:52,0.078,0.0,0.037,0.001
25/07/2022,06:09:50,0.072,0.0,0.039,0.002
25/07/2022,06:10:50,0.066,0.0,0.04,0.001
25/07/2022,06:11:51,0.059,0.0,0.041,0.001
25/07/2022,06:12:50,0.061,0.0,0.042,0.001
25/07/2022,06:14:00,0.066,0.0,0.043,0.001
25/07/2022,06:14:50,0.070,0.0,0.044,0.001
25/07/2022,06:15:50,0.077,0.0,0.045,0.001
25/07/2022,06:16:51,0.078,0.0,0.046,0.001
25/07/2022,06:17:50,0.073,0.0,0.048,0.002
25/07/2022,06:18:50,0.074,0.0,0.049,0.001
25/07/2022,06:19:51,0.078,0.0,0.05,0.001
25/07/2022,06:20:50,0.084,0.0,0.052,0.002
25/07/2022,06:21:51,0.089,0.0,0.053,0.001
25/07/2022,06:22:50,0.090,0.0,0.055,0.002
25/07/2022,06:23:50,0.091,0.0,0.056,0.001
25/07/2022,06:25:07,0.100,0.0,0.058,0.002
25/07/2022,06:26:51,0.106,0.0,0.061,0.003
25/07/2022,06:27:41,0.106,0.0,0.063,0.002
25/07/2022,06:28:51,0.111,0.0,0.065,0.002
25/07/2022,06:29:51,0.115,0.0,0.066,0.001
25/07/2022,06:30:52,0.121,0.0,0.069,0.003
25/07/2022,06:31:51,0.108,0.0,0.07,0.001
25/07/2022,06:32:52,0.096,0.0,0.072,0.002
25/07/2022,06:33:50,0.114,0.0,0.074,0.002
25/07/2022,06:34:50,0.115,0.0,0.076,0.002
25/07/2022,06:35:50,0.108,0.0,0.077,0.001
25/07/2022,06:36:50,0.108,0.0,0.079,0.002
25/07/2022,06:37:51,0.114,0.0,0.081,0.002
25/07/2022,06:38:51,0.126,0.0,0.083,0.002
25/07/2022,06:39:51,0.132,0.0,0.085,0.002
25/07/2022,06:40:59,0.136,0.0,0.088,0.003
25/07/2022,06:41:51,0.142,0.0,0.09,0.002
25/07/2022,06:42:50,0.147,0.0,0.092,0.002
25/07/2022,06:43:51,0.151,0.0,0.095,0.003
25/07/2022,06:44:50,0.160,0.0,0.097,0.002
25/07/2022,06:45:50,0.142,0.0,0.1,0.003
25/07/2022,06:46:51,0.127,0.0,0.102,0.002
25/07/2022,06:47:50,0.115,0.0,0.104,0.002
25/07/2022,06:48:51,0.107,0.0,0.106,0.002
25/07/2022,06:49:51,0.091,0.0,0.108,0.002
25/07/2022,06:50:51,0.085,0.0,0.109,0.001
25/07/2022,06:51:51,0.083,0.0,0.111,0.002
25/07/2022,06:52:51,0.078,0.0,0.112,0.001
25/07/2022,06:53:51,0.081,0.0,0.113,0.001
25/07/2022,06:54:51,0.094,0.0,0.115,0.002
25/07/2022,06:55:50,0.118,0.0,0.116,0.001
25/07/2022,06:56:51,0.138,0.0,0.119,0.003
25/07/2022,06:57:51,0.149,0.0,0.121,0.002
25/07/2022,06:58:51,0.162,0.0,0.124,0.003
25/07/2022,06:59:51,0.160,0.0,0.126,0.002
25/07/2022,07:00:51,0.149,0.0,0.129,0.003
25/07/2022,07:01:51,0.146,0.0,0.131,0.002
25/07/2022,07:02:51,0.147,0.0,0.134,0.003
25/07/2022,07:03:51,0.137,0.0,0.136,0.002
25/07/2022,07:05:00,0.147,0.0,0.139,0.003
25/07/2022,07:05:49,0.158,0.0,0.141,0.002
25/07/2022,07:06:51,0.186,0.0,0.144,0.003
25/07/2022,07:07:51,0.206,0.0,0.147,0.003
25/07/2022,07:08:51,0.205,0.0,0.151,0.004
25/07/2022,07:09:51,0.195,0.0,0.154,0.003
25/07/2022,07:10:50,0.206,0.0,0.157,0.003
25/07/2022,07:11:51,0.224,1.0,0.161,0.004
25/07/2022,07:12:50,0.242,1.0,0.165,0.004
25/07/2022,07:13:51,0.248,1.0,0.169,0.004
25/07/2022,07:14:51,0.258,1.0,0.173,0.004
25/07/2022,07:15:50,0.205,0.0,0.177,0.004
25/07/2022,07:16:50,0.164,0.0,0.18,0.003
25/07/2022,07:17:51,0.172,0.0,0.183,0.003
25/07/2022,07:18:51,0.172,0.0,0.186,0.003
25/07/2022,07:19:59,0.165,0.0,0.189,0.003
25/07/2022,07:20:50,0.155,0.0,0.191,0.002
25/07/2022,07:21:50,0.138,0.0,0.193,0.002
25/07/2022,07:22:59,0.129,0.0,0.196,0.003
25/07/2022,07:23:51,0.146,0.0,0.198,0.002
25/07/2022,07:24:51,0.162,0.0,0.201,0.003
25/07/2022,07:25:51,0.199,0.0,0.204,0.003
25/07/2022,07:26:51,0.215,0.0,0.207,0.003
25/07/2022,07:27:50,0.215,0.0,0.211,0.004
25/07/2022,07:28:59,0.231,1.0,0.215,0.004
25/07/2022,07:29:51,0.235,1.0,0.218,0.003
25/07/2022,07:30:50,0.226,1.0,0.222,0.004
25/07/2022,07:31:51,0.204,0.0,0.226,0.004
25/07/2022,07:32:50,0.157,0.0,0.229,0.003
25/07/2022,07:33:51,0.128,0.0,0.231,0.002
25/07/2022,07:34:50,0.116,0.0,0.233,0.002
25/07/2022,07:35:51,0.114,0.0,0.235,0.002
25/07/2022,07:36:51,0.105,0.0,0.237,0.002
25/07/2022,07:37:51,0.103,0.0,0.238,0.001
25/07/2022,07:38:50,0.113,0.0,0.24,0.002
25/07/2022,07:39:51,0.112,0.0,0.242,0.002
25/07/2022,07:40:51,0.090,0.0,0.244,0.002
25/07/2022,07:41:50,0.083,0.0,0.245,0.001
25/07/2022,07:42:51,0.098,0.0,0.247,0.002
25/07/2022,07:43:50,0.101,0.0,0.248,0.001
25/07/2022,07:44:50,0.108,0.0,0.25,0.002
25/07/2022,07:45:50,0.129,0.0,0.252,0.002
25/07/2022,07:47:12,0.111,0.0,0.255,0.003
25/07/2022,07:48:51,0.127,0.0,0.258,0.003
25/07/2022,07:49:59,0.146,0.0,0.261,0.003
25/07/2022,07:50:51,0.195,0.0,0.263,0.002
25/07/2022,07:51:52,0.251,1.0,0.267,0.004
25/07/2022,07:52:59,0.304,1.0,0.272,0.005
25/07/2022,07:53:51,0.306,1.0,0.277,0.005
25/07/2022,07:54:51,0.286,1.0,0.281,0.004
25/07/2022,07:55:58,0.254,1.0,0.287,0.006
25/07/2022,07:56:51,0.222,1.0,0.29,0.003
25/07/2022,07:57:51,0.196,0.0,0.294,0.004
25/07/2022,07:58:59,0.176,0.0,0.297,0.003
25/07/2022,07:59:51,0.162,0.0,0.299,0.002
25/07/2022,08:00:50,0.161,0.0,0.302,0.003
25/07/2022,08:01:51,0.161,0.0,0.305,0.003
25/07/2022,08:02:51,0.177,0.0,0.308,0.003
25/07/2022,08:03:51,0.196,0.0,0.311,0.003
25/07/2022,08:04:51,0.227,1.0,0.314,0.003
25/07/2022,08:05:50,0.253,1.0,0.318,0.004
25/07/2022,08:06:51,0.251,1.0,0.322,0.004
25/07/2022,08:07:50,0.228,1.0,0.326,0.004
25/07/2022,08:08:50,0.231,1.0,0.33,0.004
25/07/2022,08:09:51,0.243,1.0,0.334,0.004
25/07/2022,08:10:50,0.244,1.0,0.338,0.004
25/07/2022,08:11:50,0.221,1.0,0.342,0.004
25/07/2022,08:12:51,0.206,0.0,0.346,0.004
25/07/2022,08:13:50,0.188,0.0,0.349,0.003
25/07/2022,08:14:52,0.234,1.0,0.353,0.004
25/07/2022,08:15:50,0.284,1.0,0.357,0.004
25/07/2022,08:16:59,0.351,1.0,0.363,0.006
25/07/2022,08:17:49,0.400,1.0,0.368,0.005
25/07/2022,08:18:51,0.449,1.0,0.375,0.007
25/07/2022,08:19:51,0.472,1.0,0.383,0.008
25/07/2022,08:20:50,0.485,1.0,0.391,0.008
25/07/2022,08:21:51,0.493,1.0,0.399,0.008
25/07/2022,08:22:51,0.500,1.0,0.407,0.008
25/07/2022,08:23:51,0.510,1.0,0.416,0.009
25/07/2022,08:24:51,0.529,1.0,0.424,0.008
25/07/2022,08:26:07,0.561,1.0,0.436,0.012
25/07/2022,08:27:53,0.572,1.0,0.453,0.017
25/07/2022,08:28:51,0.578,1.0,0.462,0.009
25/07/2022,08:29:50,0.576,1.0,0.472,0.01
25/07/2022,08:30:51,0.572,1.0,0.481,0.009
25/07/2022,08:31:51,0.559,1.0,0.491,0.01
25/07/2022,08:32:51,0.582,1.0,0.5,0.009
25/07/2022,08:33:51,0.599,1.0,0.51,0.01
25/07/2022,08:34:51,0.608,1.0,0.52,0.01
25/07/2022,08:35:51,0.595,1.0,0.53,0.01
25/07/2022,08:36:50,0.578,1.0,0.54,0.01
25/07/2022,08:37:50,0.567,1.0,0.55,0.01
25/07/2022,08:38:51,0.553,1.0,0.559,0.009
25/07/2022,08:39:50,0.531,1.0,0.568,0.009
25/07/2022,08:41:00,0.497,1.0,0.578,0.01
25/07/2022,08:41:49,0.489,1.0,0.585,0.007
25/07/2022,08:42:51,0.513,1.0,0.593,0.008
25/07/2022,08:43:59,0.539,1.0,0.603,0.01
25/07/2022,08:44:50,0.507,1.0,0.611,0.008
25/07/2022,08:45:51,0.488,1.0,0.619,0.008
25/07/2022,08:46:51,0.509,1.0,0.628,0.009
25/07/2022,08:47:50,0.500,1.0,0.636,0.008
25/07/2022,08:48:50,0.486,1.0,0.644,0.008
25/07/2022,08:49:51,0.526,1.0,0.652,0.008
25/07/2022,08:50:51,0.562,1.0,0.661,0.009
25/07/2022,08:51:51,0.524,1.0,0.67,0.009
25/07/2022,08:52:51,0.501,1.0,0.679,0.009
25/07/2022,08:53:51,0.477,1.0,0.687,0.008
25/07/2022,08:54:51,0.438,1.0,0.695,0.008
25/07/2022,08:55:50,0.490,1.0,0.702,0.007
25/07/2022,08:56:59,0.587,1.0,0.713,0.011
25/07/2022,08:57:51,0.590,1.0,0.721,0.008
25/07/2022,08:58:51,0.540,1.0,0.731,0.01
25/07/2022,08:59:52,0.546,1.0,0.74,0.009
25/07/2022,09:00:51,0.545,1.0,0.749,0.009
25/07/2022,09:01:51,0.500,1.0,0.758,0.009
25/07/2022,09:02:51,0.515,1.0,0.766,0.008
25/07/2022,09:03:51,0.583,1.0,0.775,0.009
25/07/2022,09:04:51,0.586,1.0,0.785,0.01
25/07/2022,09:05:50,0.579,1.0,0.794,0.009
25/07/2022,09:06:51,0.660,2.0,0.805,0.011
25/07/2022,09:07:59,0.702,2.0,0.818,0.013
25/07/2022,09:08:51,0.683,2.0,0.829,0.011
25/07/2022,09:09:50,0.574,1.0,0.839,0.01
25/07/2022,09:10:51,0.573,1.0,0.848,0.009
25/07/2022,09:11:51,0.645,1.0,0.858,0.01
25/07/2022,09:12:59,0.646,1.0,0.87,0.012
25/07/2022,09:13:50,0.612,1.0,0.88,0.01
25/07/2022,09:14:50,0.549,1.0,0.889,0.009
25/07/2022,09:15:51,0.508,1.0,0.898,0.009
25/07/2022,09:16:51,0.479,1.0,0.906,0.008
25/07/2022,09:17:51,0.445,1.0,0.914,0.008
25/07/2022,09:18:51,0.397,1.0,0.921,0.007
25/07/2022,09:19:51,0.364,1.0,0.927,0.006
25/07/2022,09:20:51,0.441,1.0,0.934,0.007
25/07/2022,09:21:51,0.507,1.0,0.942,0.008
25/07/2022,09:22:51,0.499,1.0,0.95,0.008
25/07/2022,09:23:50,0.500,1.0,0.959,0.009
25/07/2022,09:24:51,0.438,1.0,0.966,0.007
25/07/2022,09:25:51,0.445,1.0,0.974,0.008
25/07/2022,09:26:51,0.501,1.0,0.982,0.008
25/07/2022,09:27:51,0.457,1.0,0.99,0.008
25/07/2022,09:28:51,0.373,1.0,0.997,0.007
25/07/2022,09:29:51,0.348,1.0,1.002,0.005
25/07/2022,09:30:50,0.342,1.0,1.008,0.006
25/07/2022,09:31:51,0.314,1.0,1.014,0.006
25/07/2022,09:32:51,0.330,1.0,1.019,0.005
25/07/2022,09:33:51,0.324,1.0,1.025,0.006
25/07/2022,09:34:48,0.314,1.0,1.03,0.005
25/07/2022,09:35:51,0.313,1.0,1.035,0.005
25/07/2022,09:37:00,0.337,1.0,1.041,0.006
25/07/2022,09:37:51,0.325,1.0,1.046,0.005
25/07/2022,09:38:51,0.291,1.0,1.051,0.005
25/07/2022,09:39:51,0.341,1.0,1.056,0.005
25/07/2022,09:40:51,0.446,1.0,1.063,0.007
25/07/2022,09:41:51,0.521,1.0,1.071,0.008
25/07/2022,09:42:51,0.551,1.0,1.08,0.009
25/07/2022,09:43:51,0.615,1.0,1.089,0.009
25/07/2022,09:44:51,0.674,2.0,1.1,0.011
25/07/2022,09:45:51,0.633,1.0,1.112,0.012
25/07/2022,09:46:50,0.550,1.0,1.121,0.009
25/07/2022,09:47:50,0.552,1.0,1.13,0.009
25/07/2022,09:48:51,0.577,1.0,1.14,0.01
25/07/2022,09:50:07,0.525,1.0,1.152,0.012
25/07/2022,09:51:51,0.557,1.0,1.167,0.015
25/07/2022,09:52:51,0.602,1.0,1.176,0.009
25/07/2022,09:53:51,0.635,1.0,1.187,0.011
25/07/2022,09:54:51,0.635,1.0,1.197,0.01
25/07/2022,09:55:51,0.643,1.0,1.208,0.011
25/07/2022,09:56:50,0.668,2.0,1.219,0.011
25/07/2022,09:57:51,0.702,2.0,1.23,0.011
25/07/2022,09:58:51,0.737,2.0,1.243,0.013
25/07/2022,09:59:51,0.770,2.0,1.255,0.012
25/07/2022,10:00:59,0.796,2.0,1.27,0.015
25/07/2022,10:01:51,0.828,2.0,1.281,0.011
25/07/2022,10:02:51,0.852,2.0,1.295,0.014
25/07/2022,10:03:59,0.874,2.0,1.312,0.017
25/07/2022,10:04:51,0.876,2.0,1.324,0.012
25/07/2022,10:05:51,0.888,2.0,1.339,0.015
25/07/2022,10:06:51,0.921,2.0,1.354,0.015
25/07/2022,10:07:52,0.933,2.0,1.37,0.016
25/07/2022,10:08:51,0.937,2.0,1.385,0.015
25/07/2022,10:09:51,0.986,2.0,1.402,0.017
25/07/2022,10:10:51,0.994,2.0,1.418,0.016
25/07/2022,10:11:51,0.987,2.0,1.434,0.016
25/07/2022,10:12:51,0.909,2.0,1.451,0.017
25/07/2022,10:13:51,0.783,2.0,1.464,0.013
25/07/2022,10:14:51,0.760,2.0,1.477,0.013